UKV74AS KMCO-KFLL

Flight info

Callsign UKV74AS
Flight time 0h 45m
Altitude 27000
Route DDANY3 JIPOD CUUDA3
Aircraft B738/M-SDE2E3FGIRWY/LB1

Departure

Time 2026-05-05 18:10
Airport Orlando International Airport (KMCO)

Arrival

Time 2026-05-05 18:55
Airport Fort Lauderdale Hollywood International Airport (KFLL)
Time Latitude Longitude Altitude Speed Heading
2026-05-05 17:25 28.42647 -81.30276 102 ft 0 kts
2026-05-05 17:46 28.42646 -81.30276 102 ft 0 kts
2026-05-05 17:57 28.42640 -81.30276 102 ft 4 kts
2026-05-05 17:57 28.42614 -81.30279 101 ft 4 kts 12°
2026-05-05 17:57 28.42587 -81.30287 102 ft 4 kts 11°
2026-05-05 17:58 28.42561 -81.30290 100 ft 4 kts 356°
2026-05-05 17:58 28.42535 -81.30284 101 ft 4 kts 327°
2026-05-05 17:58 28.42524 -81.30272 101 ft 0 kts 299°
2026-05-05 18:02 28.42538 -81.30300 101 ft 7 kts 299°
2026-05-05 18:03 28.42561 -81.30353 102 ft 8 kts 285°
2026-05-05 18:03 28.42532 -81.30399 100 ft 8 kts 196°
2026-05-05 18:03 28.42470 -81.30402 100 ft 9 kts 181°
2026-05-05 18:03 28.42410 -81.30402 100 ft 9 kts 177°
2026-05-05 18:04 28.42352 -81.30401 100 ft 8 kts 182°
2026-05-05 18:04 28.42296 -81.30393 100 ft 8 kts 151°
2026-05-05 18:04 28.42274 -81.30338 101 ft 8 kts 94°
2026-05-05 18:04 28.42277 -81.30278 101 ft 8 kts 86°
2026-05-05 18:05 28.42278 -81.30220 101 ft 7 kts 90°
2026-05-05 18:05 28.42277 -81.30163 101 ft 7 kts 92°
2026-05-05 18:05 28.42277 -81.30108 102 ft 7 kts 88°
2026-05-05 18:05 28.42278 -81.30054 102 ft 7 kts 92°
2026-05-05 18:06 28.42278 -81.30002 103 ft 7 kts 89°
2026-05-05 18:06 28.42278 -81.29984 103 ft 7 kts 89°
2026-05-05 18:06 28.42264 -81.29834 102 ft 16 kts 124°
2026-05-05 18:06 28.42161 -81.29793 101 ft 16 kts 178°
2026-05-05 18:07 28.42041 -81.29791 101 ft 18 kts 179°
2026-05-05 18:07 28.41911 -81.29789 101 ft 19 kts 179°
2026-05-05 18:07 28.41773 -81.29789 101 ft 20 kts 180°
2026-05-05 18:07 28.41630 -81.29786 101 ft 20 kts 177°
2026-05-05 18:08 28.41491 -81.29776 101 ft 20 kts 180°
2026-05-05 18:08 28.41353 -81.29786 100 ft 20 kts 175°
2026-05-05 18:08 28.41215 -81.29783 100 ft 20 kts 180°
2026-05-05 18:08 28.41082 -81.29782 100 ft 19 kts 180°
2026-05-05 18:09 28.40961 -81.29768 99 ft 16 kts 146°
2026-05-05 18:09 28.40930 -81.29653 97 ft 17 kts 91°
2026-05-05 18:09 28.40968 -81.29570 96 ft 13 kts 18°
2026-05-05 18:09 28.41217 -81.29563 100 ft 79 kts 359°
2026-05-05 18:10 28.41733 -81.29566 104 ft 139 kts 360°
2026-05-05 18:10 28.42869 -81.29606 572 ft 175 kts 356°
2026-05-05 18:10 28.44039 -81.29759 1863 ft 167 kts
2026-05-05 18:10 28.45116 -81.29338 2871 ft 166 kts 34°
2026-05-05 18:11 28.45962 -81.28422 3613 ft 178 kts 53°
2026-05-05 18:11 28.46778 -81.27188 3986 ft 211 kts 53°
2026-05-05 18:11 28.47720 -81.25760 4223 ft 240 kts 53°
2026-05-05 18:11 28.48778 -81.24158 4542 ft 264 kts 53°
2026-05-05 18:12 28.49888 -81.22438 5291 ft 274 kts 58°
2026-05-05 18:12 28.50594 -81.20413 6243 ft 278 kts 77°
2026-05-05 18:12 28.50985 -81.18213 6902 ft 293 kts 80°
2026-05-05 18:12 28.51032 -81.15878 6856 ft 295 kts 104°
2026-05-05 18:13 28.50526 -81.13644 6866 ft 288 kts 106°
2026-05-05 18:13 28.50003 -81.11453 7086 ft 288 kts 106°
2026-05-05 18:13 28.49472 -81.09232 7878 ft 293 kts 105°
2026-05-05 18:13 28.48963 -81.06978 8809 ft 297 kts 105°
2026-05-05 18:14 28.48182 -81.04797 9626 ft 302 kts 129°
2026-05-05 18:14 28.46690 -81.03128 10406 ft 306 kts 143°
2026-05-05 18:14 28.44976 -81.01566 10691 ft 334 kts 144°
2026-05-05 18:14 28.43092 -80.99889 11256 ft 348 kts 144°
2026-05-05 18:15 28.41169 -80.98168 11990 ft 355 kts 144°
2026-05-05 18:15 28.39221 -80.96404 12723 ft 361 kts 144°
2026-05-05 18:15 28.37217 -80.94636 13418 ft 368 kts 144°
2026-05-05 18:15 28.35190 -80.92796 14087 ft 375 kts 143°
2026-05-05 18:16 28.33168 -80.90938 14722 ft 381 kts 143°
2026-05-05 18:16 28.31094 -80.89054 15411 ft 384 kts 143°
2026-05-05 18:16 28.29007 -80.87117 16094 ft 389 kts 139°
2026-05-05 18:16 28.27338 -80.84677 16730 ft 397 kts 116°
2026-05-05 18:17 28.26258 -80.81785 17442 ft 400 kts 111°
2026-05-05 18:17 28.25241 -80.78825 18106 ft 405 kts 110°
2026-05-05 18:17 28.24208 -80.75822 18664 ft 411 kts 110°
2026-05-05 18:17 28.23142 -80.72793 19197 ft 416 kts 111°
2026-05-05 18:18 28.22058 -80.69769 19713 ft 422 kts 111°
2026-05-05 18:18 28.20942 -80.66671 20239 ft 427 kts 111°
2026-05-05 18:18 28.19858 -80.63510 20808 ft 431 kts 110°
2026-05-05 18:18 28.18807 -80.60310 21073 ft 436 kts 109°
2026-05-05 18:19 28.17756 -80.57076 21065 ft 437 kts 109°
2026-05-05 18:19 28.16705 -80.53848 21075 ft 436 kts 109°
2026-05-05 18:19 28.15644 -80.50614 21084 ft 437 kts 110°
2026-05-05 18:19 28.14580 -80.47391 21083 ft 437 kts 110°
2026-05-05 18:20 28.13510 -80.44162 21083 ft 438 kts 110°
2026-05-05 18:20 28.12444 -80.40955 21086 ft 438 kts 110°
2026-05-05 18:20 28.11366 -80.37719 21079 ft 438 kts 111°
2026-05-05 18:20 28.09879 -80.34731 21070 ft 437 kts 131°
2026-05-05 18:21 28.07633 -80.32457 21097 ft 430 kts 150°
2026-05-05 18:21 28.04983 -80.30972 21080 ft 422 kts 167°
2026-05-05 18:21 28.02148 -80.30199 21072 ft 418 kts 173°
2026-05-05 18:21 27.99262 -80.29541 21086 ft 430 kts 174°
2026-05-05 18:22 27.96277 -80.28889 21102 ft 443 kts 174°
2026-05-05 18:22 27.93212 -80.28216 21100 ft 455 kts 174°
2026-05-05 18:22 27.90108 -80.27520 21101 ft 465 kts 173°
2026-05-05 18:22 27.86905 -80.26786 21097 ft 474 kts 173°
2026-05-05 18:23 27.83650 -80.26029 21097 ft 481 kts 173°
2026-05-05 18:23 27.80350 -80.25254 21098 ft 488 kts 172°
2026-05-05 18:23 27.77013 -80.24467 21092 ft 492 kts 172°
2026-05-05 18:23 27.73655 -80.23672 21085 ft 490 kts 172°
2026-05-05 18:24 27.70325 -80.22884 21077 ft 489 kts 172°
2026-05-05 18:24 27.66984 -80.22096 21076 ft 489 kts 172°
2026-05-05 18:24 27.63651 -80.21313 21108 ft 489 kts 173°
2026-05-05 18:24 27.60310 -80.20532 21070 ft 490 kts 172°
2026-05-05 18:25 27.56978 -80.19751 21076 ft 489 kts 172°
2026-05-05 18:25 27.54770 -80.19233 21076 ft 489 kts 172°
2026-05-05 18:25 27.50314 -80.18190 21082 ft 488 kts 172°
2026-05-05 18:25 27.46990 -80.17412 21086 ft 488 kts 172°
2026-05-05 18:26 27.43698 -80.16643 21089 ft 489 kts 172°
2026-05-05 18:26 27.40364 -80.15865 21083 ft 489 kts 173°
2026-05-05 18:26 27.37025 -80.15085 21071 ft 481 kts 173°
2026-05-05 18:26 27.33824 -80.14331 21059 ft 459 kts 173°
2026-05-05 18:27 27.30770 -80.13610 21054 ft 438 kts 173°
2026-05-05 18:27 27.27842 -80.12922 21053 ft 420 kts 173°
2026-05-05 18:27 27.25042 -80.12266 21017 ft 404 kts 173°
2026-05-05 18:27 27.22344 -80.11640 20714 ft 397 kts 173°
2026-05-05 18:28 27.16973 -80.10402 19947 ft 390 kts 173°
2026-05-05 18:28 27.14322 -80.09791 19550 ft 388 kts 173°
2026-05-05 18:28 27.11687 -80.09182 19130 ft 386 kts 173°
2026-05-05 18:29 27.09056 -80.08572 18732 ft 384 kts 173°
2026-05-05 18:29 27.06446 -80.07968 18291 ft 383 kts 173°
2026-05-05 18:29 27.03837 -80.07364 17811 ft 381 kts 172°
2026-05-05 18:29 27.01248 -80.06763 17382 ft 378 kts 172°
2026-05-05 18:30 26.98680 -80.06167 16962 ft 375 kts 172°
2026-05-05 18:30 26.96168 -80.05585 16560 ft 372 kts 172°
2026-05-05 18:30 26.93637 -80.04999 16151 ft 369 kts 172°
2026-05-05 18:30 26.91129 -80.04418 15761 ft 365 kts 172°
2026-05-05 18:31 26.88646 -80.03844 15369 ft 363 kts 172°
2026-05-05 18:31 26.86184 -80.03275 14976 ft 360 kts 172°
2026-05-05 18:31 26.83743 -80.02711 14588 ft 357 kts 172°
2026-05-05 18:31 26.81317 -80.02151 14188 ft 355 kts 172°
2026-05-05 18:32 26.78909 -80.01615 13798 ft 352 kts 173°
2026-05-05 18:32 26.76512 -80.01075 13377 ft 349 kts 172°
2026-05-05 18:32 26.74179 -80.00529 12958 ft 342 kts 172°
2026-05-05 18:32 26.71886 -79.99989 12568 ft 331 kts 172°
2026-05-05 18:33 26.69670 -79.99470 12206 ft 321 kts 172°
2026-05-05 18:33 26.67494 -79.98965 11878 ft 318 kts 172°
2026-05-05 18:33 26.65331 -79.98465 11522 ft 317 kts 171°
2026-05-05 18:33 26.63176 -79.97969 11171 ft 316 kts 171°
2026-05-05 18:34 26.61025 -79.97475 10806 ft 315 kts 171°
2026-05-05 18:34 26.58881 -79.96982 10491 ft 313 kts 171°
2026-05-05 18:34 26.56782 -79.96498 10374 ft 303 kts 171°
2026-05-05 18:34 26.54744 -79.96028 10235 ft 295 kts 171°
2026-05-05 18:35 26.52762 -79.95572 10088 ft 286 kts 171°
2026-05-05 18:35 26.50830 -79.95128 9899 ft 282 kts 172°
2026-05-05 18:35 26.48919 -79.94691 9608 ft 284 kts 171°
2026-05-05 18:35 26.46976 -79.94246 9310 ft 286 kts 171°
2026-05-05 18:36 26.45020 -79.93798 9029 ft 288 kts 171°
2026-05-05 18:36 26.43060 -79.93348 8724 ft 287 kts 171°
2026-05-05 18:36 26.41108 -79.92900 8419 ft 282 kts 171°
2026-05-05 18:36 26.39199 -79.92496 8123 ft 276 kts 180°
2026-05-05 18:37 26.37358 -79.92885 8059 ft 271 kts 206°
2026-05-05 18:37 26.35733 -79.93891 8028 ft 268 kts 214°
2026-05-05 18:37 26.34131 -79.94963 8022 ft 268 kts 212°
2026-05-05 18:37 26.32515 -79.96003 8027 ft 269 kts 212°
2026-05-05 18:38 26.30883 -79.97051 8001 ft 271 kts 212°
2026-05-05 18:38 26.29229 -79.98114 7806 ft 275 kts 213°
2026-05-05 18:38 26.27566 -79.99191 7567 ft 274 kts 212°
2026-05-05 18:38 26.25928 -80.00237 7372 ft 269 kts 211°
2026-05-05 18:39 26.24314 -80.01258 7180 ft 265 kts 211°
2026-05-05 18:39 26.22738 -80.02264 6988 ft 263 kts 213°
2026-05-05 18:39 26.21156 -80.03291 6802 ft 262 kts 212°
2026-05-05 18:39 26.19582 -80.04319 6615 ft 262 kts 213°
2026-05-05 18:40 26.18194 -80.05576 6463 ft 256 kts 234°
2026-05-05 18:40 26.17377 -80.07301 6346 ft 251 kts 251°
2026-05-05 18:40 26.16812 -80.09156 6219 ft 255 kts 254°
2026-05-05 18:40 26.16297 -80.11058 6103 ft 259 kts 253°
2026-05-05 18:41 26.15733 -80.12965 5969 ft 258 kts 252°
2026-05-05 18:41 26.15159 -80.14843 5840 ft 255 kts 255°
2026-05-05 18:41 26.14950 -80.16783 5708 ft 252 kts 270°
2026-05-05 18:41 26.14969 -80.18738 5600 ft 254 kts 272°
2026-05-05 18:42 26.14998 -80.20713 5458 ft 256 kts 271°
2026-05-05 18:42 26.15030 -80.22713 5347 ft 260 kts 271°
2026-05-05 18:42 26.15034 -80.24709 5238 ft 260 kts 271°
2026-05-05 18:42 26.15047 -80.26722 5108 ft 260 kts 271°
2026-05-05 18:43 26.15065 -80.28731 5022 ft 259 kts 271°
2026-05-05 18:43 26.15079 -80.30728 5010 ft 256 kts 271°
2026-05-05 18:43 26.15089 -80.32711 5003 ft 256 kts 271°
2026-05-05 18:43 26.15120 -80.34695 5004 ft 258 kts 271°
2026-05-05 18:44 26.15117 -80.36695 4998 ft 258 kts 270°
2026-05-05 18:44 26.15098 -80.38678 4985 ft 255 kts 270°
2026-05-05 18:44 26.15055 -80.40654 4974 ft 255 kts 269°
2026-05-05 18:44 26.15023 -80.42629 4970 ft 257 kts 269°
2026-05-05 18:45 26.14970 -80.44627 4972 ft 258 kts 270°
2026-05-05 18:45 26.14966 -80.46600 4974 ft 257 kts 271°
2026-05-05 18:45 26.14950 -80.48593 4967 ft 259 kts 270°
2026-05-05 18:45 26.14902 -80.50601 4959 ft 259 kts 269°
2026-05-05 18:46 26.14889 -80.52602 4961 ft 258 kts 271°
2026-05-05 18:46 26.14871 -80.54597 4954 ft 258 kts 270°
2026-05-05 18:46 26.14862 -80.56608 4902 ft 261 kts 270°
2026-05-05 18:46 26.14833 -80.58626 4771 ft 257 kts 269°
2026-05-05 18:47 26.14743 -80.60544 4621 ft 247 kts 258°
2026-05-05 18:47 26.13917 -80.62137 4454 ft 237 kts 218°
2026-05-05 18:47 26.12441 -80.62750 4313 ft 225 kts 177°
2026-05-05 18:47 26.11049 -80.62163 4170 ft 213 kts 135°
2026-05-05 18:48 26.10348 -80.60786 4059 ft 201 kts 108°
2026-05-05 18:48 26.09880 -80.59355 3986 ft 194 kts 109°
2026-05-05 18:48 26.09485 -80.57936 3983 ft 191 kts 104°
2026-05-05 18:48 26.09139 -80.56514 4003 ft 192 kts 105°
2026-05-05 18:49 26.08796 -80.55051 4005 ft 196 kts 102°
2026-05-05 18:49 26.08519 -80.53559 3987 ft 197 kts 99°
2026-05-05 18:49 26.08297 -80.52052 3986 ft 197 kts 99°
2026-05-05 18:49 26.08103 -80.50538 3985 ft 198 kts 96°
2026-05-05 18:50 26.07989 -80.49008 3993 ft 199 kts 92°
2026-05-05 18:50 26.07934 -80.47471 3986 ft 200 kts 91°
2026-05-05 18:50 26.07905 -80.45927 3998 ft 200 kts 90°
2026-05-05 18:50 26.07887 -80.44289 4065 ft 228 kts 90°
2026-05-05 18:51 26.07871 -80.42373 3855 ft 260 kts 90°
2026-05-05 18:51 26.07855 -80.40368 3599 ft 256 kts 90°
2026-05-05 18:51 26.07840 -80.38426 3344 ft 247 kts 90°
2026-05-05 18:51 26.07826 -80.36555 3101 ft 238 kts 90°
2026-05-05 18:52 26.07813 -80.34764 2994 ft 224 kts 90°
2026-05-05 18:52 26.07801 -80.33075 2810 ft 215 kts 89°
2026-05-05 18:52 26.07789 -80.31430 2550 ft 210 kts 90°
2026-05-05 18:52 26.07778 -80.29839 2292 ft 201 kts 90°
2026-05-05 18:53 26.07768 -80.28314 2039 ft 193 kts 90°
2026-05-05 18:53 26.07759 -80.26870 1793 ft 187 kts 89°
2026-05-05 18:53 26.07727 -80.25449 1555 ft 181 kts 91°
2026-05-05 18:53 26.07721 -80.24055 1310 ft 178 kts 89°
2026-05-05 18:54 26.07747 -80.22696 1079 ft 176 kts 91°
2026-05-05 18:54 26.07719 -80.21317 873 ft 180 kts 89°
2026-05-05 18:54 26.07718 -80.19946 655 ft 176 kts 89°
2026-05-05 18:54 26.07707 -80.18593 554 ft 176 kts 90°
2026-05-05 18:55 26.07697 -80.17241 224 ft 167 kts 89°
2026-05-05 18:55 26.07695 -80.16037 29 ft 143 kts 92°
2026-05-05 18:55 26.07680 -80.15112 16 ft 86 kts 91°
2026-05-05 18:55 26.07678 -80.14706 25 ft 35 kts 110°
2026-05-05 18:56 26.07617 -80.14573 27 ft 0 kts 107°
2026-05-05 18:56 26.07610 -80.14558 24 ft 0 kts 118°
2026-05-05 18:57 26.07602 -80.14544 24 ft 10 kts 123°
2026-05-05 18:57 26.07565 -80.14430 26 ft 17 kts 100°
2026-05-05 18:57 26.07555 -80.14300 24 ft 17 kts 88°
2026-05-05 18:57 26.07453 -80.14197 25 ft 16 kts 159°
2026-05-05 18:58 26.07397 -80.14234 23 ft 16 kts 247°
2026-05-05 18:58 26.07380 -80.14271 22 ft 2 kts 244°